Wind_Speed
32 33 35 37 40 42 44 45 46 46 44 35 33 34 30 28 28 29 30 30 32 35 38 40 42 44 45 42 44 44 43 41 40 40 40 42 42 40 38 38 39 46 46
31 34 38 42 46 48 45 44 40 34 29 23 17 18 18 18 18 19 21 22 24 27 30 32 35 39 43 43 46 45 44 43 42 42 42 44 43 40 39 38 40 45 44
36 40 43 48 50 46 44 37 29 22 18 16 20 18 16 13 11 10 11 13 15 18 24 30 33 37 37 43 47 47 44 44 43 43 43 45 42 42 40 40 42 48 47
37 41 47 53 47 45 37 30 24 18 21 19 19 16 11 5 5 6 6 8 11 14 21 26 32 33 37 41 45 45 45 44 43 43 45 45 41 41 41 40 47 49 50
43 44 52 52 47 38 29 25 20 23 23 21 18 15 10 3 4 6 5 6 8 10 18 22 27 32 36 39 43 47 44 43 43 44 47 45 43 43 42 43 50 52 47
41 46 59 50 41 29 28 24 25 27 27 27 23 15 9 6 2 8 6 8 10 13 21 24 28 32 38 40 43 43 43 42 43 46 47 44 43 44 43 47 51 54 50
45 56 59 47 36 29 29 27 29 33 33 29 24 18 10 5 7 5 5 11 13 18 25 27 30 33 37 40 43 42 41 41 42 43 45 44 45 46 46 52 56 53 55
51 60 56 44 30 30 28 31 35 37 33 33 30 26 21 18 15 16 16 18 20 24 25 28 34 36 38 38 43 43 41 42 41 43 42 45 48 52 52 56 53 52 52
55 64 57 42 29 32 30 34 38 39 38 38 37 34 27 26 24 21 19 21 22 24 27 30 36 40 43 43 45 44 43 44 44 43 45 49 51 57 52 58 51 48 50
58 65 56 39 32 35 33 35 39 40 41 40 40 42 35 33 28 24 21 23 27 28 31 35 40 44 45 47 46 45 47 46 44 45 48 50 55 57 56 39 51 50 51
58 65 56 40 34 39 35 35 37 39 41 42 40 43 42 39 39 33 32 34 37 39 42 47 50 52 51 48 46 45 43 42 44 48 49 51 56 60 56 45 49 42 37
57 64 60 42 36 37 37 37 37 36 37 40 41 40 43 42 41 41 39 41 44 47 48 49 49 49 47 45 43 42 41 43 46 48 48 49 56 55 46 41 44 44 42
55 61 67 45 36 37 39 39 38 37 36 38 41 39 40 42 42 43 43 43 44 46 48 48 49 49 50 49 47 45 44 44 44 44 44 45 51 50 37 40 33 39 44
53 59 64 57 38 34 37 39 41 42 43 42 42 41 40 42 41 41 43 44 44 46 48 49 51 52 52 51 50 48 46 44 43 42 44 47 56 54 37 47 40 46 39
49 56 61 67 49 35 36 36 39 41 42 42 44 44 42 40 42 42 43 45 48 50 52 53 54 55 54 52 49 50 49 46 43 41 42 42 47 42 32 45 38 33 43
46 53 58 59 62 45 35 37 33 35 36 37 40 42 42 42 37 39 43 45 47 50 51 52 52 51 50 50 49 48 45 44 43 41 43 45 42 37 38 46 40 30 32
43 48 53 56 60 58 48 37 40 35 35 36 39 39 38 40 42 40 40 43 45 45 46 45 46 47 48 47 47 46 45 44 43 43 43 43 44 33 36 38 35 28 30
39 43 47 51 55 56 54 50 46 40 37 36 40 46 42 38 41 41 41 40 40 38 38 43 40 40 41 43 43 43 43 42 44 49 46 39 30 32 29 29 31 27 32
34 38 42 45 48 51 54 54 47 47 43 41 38 34 39 41 38 37 39 37 39 39 42 49 51 50 51 49 44 42 44 49 46 41 41 32 36 31 29 27 24 25 32
31 34 36 38 41 44 49 52 52 48 47 48 45 40 44 44 46 48 45 48 48 46 47 49 46 44 43 48 45 42 44 42 40 34 32 31 27 26 24 26 27 28 24
26 29 32 33 36 39 42 45 49 51 47 48 50 49 46 37 44 45 41 44 43 43 41 34 37 39 38 40 40 41 38 36 39 37 31 29 25 18 19 21 23 17 14
22 24 27 29 32 34 37 39 42 45 47 44 43 41 43 46 45 44 37 35 37 38 39 39 37 37 36 37 38 35 35 34 32 31 28 25 18 20 24 19 19 11 14
19 20 22 24 26 29 31 33 35 37 39 41 42 38 36 37 35 38 37 38 37 38 35 33 33 34 34 32 31 30 32 27 24 25 23 25 24 23 18 15 15 12 7
16 17 18 19 21 22 24 26 28 30 32 33 34 35 36 36 34 33 36 35 33 34 30 31 28 28 27 27 26 30 29 27 25 24 22 20 15 14 12 10 10 8 7
14 14 15 16 16 17 18 19 20 22 24 26 27 27 28 29 30 32 32 28 29 28 28 27 24 22 17 15 19 21 26 22 18 22 19 18 12 12 9 7 7 6 6
11 11 11 12 12 13 13 14 14 15 16 17 19 21 22 22 23 24 24 25 24 23 23 22 22 22 21 21 21 18 14 13 14 9 9 12 11 10 10 9 9 9 8
Wind_Direction
333 334 334 334 333 328 321 314 308 304 308 313 306 299 293 286 277 268 259 249 242 238 236 234 229 225 220 210 203 202 200 197 198 193 194 195 195 191 185 184 182 181 180
342 342 341 339 333 328 326 323 324 325 323 324 322 311 299 287 276 267 256 244 236 230 221 217 212 212 208 200 196 197 195 194 194 190 189 193 192 187 181 179 178 175 173
351 349 345 339 337 338 337 339 344 353 7 335 331 328 315 299 277 256 242 229 219 213 210 205 202 199 199 193 188 191 190 191 190 188 186 189 187 182 177 175 172 169 166
358 351 348 348 348 348 352 359 8 13 360 359 344 334 325 281 210 196 198 192 194 185 184 184 183 187 182 179 184 185 185 186 187 183 184 186 182 176 172 171 167 166 166
360 355 352 357 356 356 3 17 22 14 14 11 9 0 351 280 210 193 201 209 185 174 172 176 177 177 168 172 175 179 181 181 181 180 182 179 177 170 169 166 166 166 164
359 360 360 2 2 8 26 28 25 27 27 25 23 21 6 5 254 186 202 199 170 158 157 150 154 162 162 168 171 176 175 177 176 179 179 174 168 164 166 162 163 164 162
9 5 5 6 11 28 30 36 38 34 32 26 26 27 29 66 72 133 150 155 159 149 151 148 151 156 159 166 166 169 172 172 172 177 174 166 161 161 162 158 163 166 168
15 9 10 14 25 41 45 46 43 39 36 37 37 41 50 75 89 102 116 128 138 144 150 152 153 157 161 157 161 164 165 166 169 174 165 159 158 159 157 158 162 169 172
21 12 17 22 39 47 52 53 50 44 39 45 48 52 56 78 90 98 110 122 131 141 147 151 154 156 156 154 157 159 160 165 169 163 155 155 159 160 157 164 168 170 161
26 16 22 31 45 48 55 57 53 47 46 47 54 59 63 77 85 92 101 115 122 129 136 142 144 146 146 148 152 156 162 163 159 152 152 156 159 164 160 165 169 169 156
29 19 30 35 46 50 57 59 58 50 49 49 56 66 69 74 84 90 100 108 113 119 126 130 132 136 140 144 150 155 154 151 149 150 153 155 160 164 164 165 170 171 174
31 25 35 37 48 52 57 57 58 55 53 53 57 67 75 79 84 90 97 105 111 114 117 120 124 129 134 136 139 138 140 145 147 148 151 156 162 160 163 168 166 169 168
34 35 32 39 49 56 59 62 59 57 58 55 59 67 76 82 88 93 96 101 106 111 116 119 121 123 125 126 129 132 137 140 141 144 148 155 160 152 154 150 160 170 165
35 38 36 41 46 55 56 64 60 59 64 63 65 69 76 81 86 93 99 103 106 110 113 115 118 120 122 123 126 130 131 132 135 140 146 156 162 158 145 165 162 169 179
34 41 42 38 45 56 56 64 65 64 65 66 68 72 76 84 91 93 97 102 106 109 111 115 118 120 123 125 126 129 131 133 137 141 147 154 163 162 154 155 157 159 166
35 40 43 44 44 52 59 64 63 66 68 69 72 74 79 81 82 94 100 102 105 108 111 114 117 119 120 121 125 127 129 132 136 142 149 154 159 155 150 157 163 160 161
38 40 43 45 47 50 58 64 81 75 74 74 79 80 79 81 86 89 94 100 105 109 110 111 115 118 121 124 126 130 135 138 141 144 145 145 154 149 156 158 160 164 171
40 41 43 45 50 53 56 60 65 68 81 86 90 87 85 85 88 92 96 100 103 106 108 112 110 119 121 121 125 129 131 133 136 142 141 142 157 165 164 152 161 171 176
44 44 44 45 47 52 56 59 63 65 74 81 84 89 91 93 93 92 96 101 103 105 111 115 114 112 114 115 115 116 129 130 128 134 146 149 146 153 159 168 173 167 169
45 47 49 49 49 50 54 57 61 69 73 75 85 96 98 101 100 99 102 100 98 102 113 121 112 108 114 119 121 124 128 133 137 141 147 144 144 150 156 161 171 173 166
45 48 49 51 52 53 54 56 60 63 71 74 79 82 84 99 108 107 106 106 102 107 111 114 112 114 120 120 125 122 122 128 133 140 138 139 146 150 154 167 150 163 158
48 48 49 50 52 54 54 57 58 62 68 73 78 80 80 84 84 91 99 109 112 110 106 112 114 114 123 128 129 134 130 132 133 142 158 164 165 163 153 155 164 181 171
48 50 50 50 51 53 56 57 60 62 64 68 74 79 85 88 84 83 88 87 91 102 98 106 105 106 109 112 121 133 136 139 144 157 164 151 139 144 143 154 159 156 174
43 47 51 52 52 52 53 56 60 63 65 68 69 72 76 77 81 91 98 93 95 100 92 98 98 95 97 99 109 122 122 121 120 125 128 138 144 148 146 161 167 186 210
35 38 42 49 53 55 56 57 56 58 63 67 69 71 74 75 78 83 86 93 100 97 93 96 100 106 110 115 124 129 135 135 131 134 138 137 154 168 166 178 196 199 207
28 30 34 37 43 50 53 55 59 63 63 62 64 68 71 75 77 79 82 88 91 92 93 96 99 102 101 100 103 123 149 158 156 150 140 151 151 159 172 183 194 203 214
Height
3023 3015 3005 2995 2985 2974 2963 2952 2941 2931 2923 2915 2909 2903 2898 2894 2891 2889 2889 2891 2893 2897 2903 2910 2919 2928 2939 2950 2962 2970 2981 2991 3000 3009 3018 3027 3037 3047 3056 3065 3074 3084 3095
3019 3010 3000 2989 2977 2963 2950 2937 2926 2917 2910 2903 2898 2892 2887 2883 2881 2880 2879 2881 2883 2886 2892 2898 2907 2916 2928 2940 2953 2963 2975 2986 2996 3005 3014 3025 3035 3046 3055 3064 3074 3085 3097
3017 3007 2996 2983 2966 2950 2937 2926 2916 2909 2905 2898 2892 2886 2880 2876 2874 2873 2873 2874 2876 2880 2885 2892 2900 2910 2920 2932 2945 2958 2971 2983 2993 3003 3012 3023 3034 3044 3054 3064 3074 3086 3098
3015 3003 2989 2972 2956 2943 2931 2921 2914 2908 2902 2895 2888 2880 2875 2871 2869 2869 2869 2871 2873 2877 2882 2889 2897 2907 2916 2928 2941 2956 2968 2980 2991 3001 3011 3022 3035 3045 3055 3065 3077 3087 3099
3011 3000 2984 2966 2951 2939 2929 2921 2915 2908 2900 2892 2885 2879 2874 2871 2869 2869 2870 2871 2873 2877 2881 2888 2896 2905 2914 2927 2942 2953 2967 2978 2990 3001 3010 3022 3035 3046 3056 3066 3078 3090 3101
3011 2997 2978 2963 2950 2939 2929 2922 2917 2909 2900 2892 2885 2879 2874 2870 2868 2868 2869 2871 2874 2879 2884 2890 2898 2907 2917 2929 2943 2955 2968 2980 2991 3001 3011 3025 3038 3050 3059 3069 3080 3091 3103
3012 2995 2976 2962 2950 2940 2933 2927 2920 2911 2902 2894 2886 2878 2871 2868 2867 2868 2868 2871 2875 2881 2887 2895 2902 2911 2921 2931 2944 2957 2971 2982 2994 3005 3016 3029 3042 3052 3061 3072 3082 3091 3100
3012 2995 2977 2962 2951 2944 2937 2932 2925 2916 2908 2898 2888 2881 2875 2870 2870 2871 2873 2875 2878 2884 2890 2898 2907 2916 2926 2936 2947 2962 2974 2985 2995 3006 3020 3035 3045 3056 3065 3074 3084 3095 3102
3013 2995 2977 2964 2956 2950 2944 2938 2931 2925 2917 2906 2896 2887 2882 2877 2878 2879 2880 2881 2884 2889 2895 2902 2911 2921 2932 2942 2955 2968 2978 2988 2998 3012 3026 3039 3049 3058 3070 3081 3089 3096 3105
3014 2998 2983 2971 2964 2958 2950 2945 2940 2934 2926 2917 2908 2898 2893 2888 2888 2888 2889 2889 2891 2895 2902 2909 2918 2928 2940 2952 2964 2975 2984 2995 3007 3020 3030 3042 3054 3064 3075 3085 3094 3103 3110
3022 3008 2992 2980 2973 2966 2959 2954 2949 2944 2937 2929 2922 2913 2907 2904 2900 2901 2901 2902 2904 2907 2913 2920 2928 2940 2951 2962 2974 2985 2996 3005 3016 3025 3036 3048 3058 3068 3080 3090 3102 3111 3119
3031 3018 3001 2989 2981 2975 2969 2964 2960 2955 2949 2943 2937 2930 2924 2921 2918 2917 2919 2919 2920 2924 2930 2937 2945 2954 2965 2975 2987 2996 3005 3015 3023 3033 3045 3054 3065 3078 3088 3096 3107 3117 3127
3041 3028 3012 3000 2991 2985 2980 2975 2971 2966 2960 2956 2950 2945 2941 2938 2936 2935 2936 2939 2941 2944 2947 2953 2960 2969 2977 2986 2996 3006 3015 3025 3034 3045 3054 3064 3075 3086 3094 3102 3111 3121 3130
3051 3039 3026 3011 3002 2996 2990 2985 2982 2976 2972 2968 2964 2960 2957 2956 2954 2953 2953 2955 2958 2961 2965 2971 2976 2982 2990 2998 3007 3017 3027 3037 3046 3055 3063 3072 3081 3091 3101 3110 3115 3123 3132
3059 3050 3039 3025 3014 3008 3003 2997 2994 2989 2986 2983 2979 2976 2974 2972 2970 2971 2972 2973 2975 2977 2981 2985 2991 2997 3004 3011 3019 3028 3036 3045 3055 3064 3073 3081 3091 3100 3106 3114 3124 3131 3138
3068 3059 3050 3041 3030 3020 3015 3011 3006 3002 3001 2997 2995 2992 2989 2988 2988 2989 2990 2992 2993 2995 2999 3002 3007 3012 3018 3024 3031 3039 3048 3055 3064 3073 3081 3089 3098 3108 3114 3121 3130 3137 3144
3077 3069 3063 3055 3045 3036 3027 3023 3021 3018 3015 3012 3008 3007 3007 3005 3005 3006 3008 3009 3010 3013 3016 3019 3023 3027 3032 3038 3044 3050 3056 3064 3073 3081 3090 3099 3108 3115 3122 3128 3135 3142 3148
3087 3080 3074 3068 3061 3053 3046 3038 3034 3031 3028 3026 3023 3021 3020 3022 3022 3021 3023 3026 3027 3031 3032 3036 3039 3043 3047 3051 3057 3063 3069 3075 3083 3092 3100 3108 3116 3123 3128 3135 3141 3146 3150
3097 3091 3085 3079 3074 3069 3062 3056 3049 3045 3040 3037 3036 3035 3034 3034 3036 3036 3036 3041 3041 3043 3045 3049 3053 3057 3061 3066 3071 3076 3082 3089 3096 3103 3111 3118 3124 3130 3135 3140 3144 3149 3155
3106 3101 3097 3092 3087 3082 3077 3071 3065 3059 3055 3052 3051 3050 3050 3049 3049 3051 3054 3056 3057 3058 3060 3063 3066 3070 3074 3079 3084 3089 3094 3099 3106 3112 3118 3124 3129 3134 3139 3144 3148 3153 3157
3114 3111 3107 3104 3099 3095 3090 3085 3081 3075 3070 3068 3066 3065 3064 3065 3065 3066 3068 3070 3072 3073 3076 3078 3080 3084 3088 3091 3095 3100 3104 3109 3115 3121 3126 3131 3135 3139 3142 3146 3150 3155 3158
3121 3118 3115 3112 3109 3105 3102 3098 3094 3090 3087 3084 3081 3081 3081 3081 3081 3082 3082 3083 3084 3086 3088 3090 3092 3094 3097 3101 3105 3109 3113 3118 3122 3127 3131 3135 3138 3142 3146 3149 3153 3157 3159
3128 3126 3123 3120 3118 3115 3112 3109 3107 3104 3101 3099 3097 3096 3095 3095 3095 3095 3095 3095 3096 3098 3100 3102 3104 3106 3108 3111 3114 3117 3121 3125 3128 3132 3135 3139 3143 3147 3150 3153 3156 3159 3161
3133 3131 3129 3127 3125 3123 3121 3119 3117 3115 3114 3112 3111 3109 3108 3107 3106 3106 3107 3107 3109 3110 3111 3113 3114 3116 3119 3120 3123 3126 3129 3133 3136 3139 3142 3146 3149 3151 3153 3156 3158 3161 3162
3135 3134 3134 3133 3132 3130 3128 3127 3125 3124 3123 3122 3121 3121 3119 3118 3118 3118 3117 3118 3119 3120 3121 3123 3125 3126 3127 3129 3132 3134 3137 3139 3142 3145 3147 3149 3151 3153 3155 3157 3158 3159 3161
3138 3137 3136 3136 3135 3134 3134 3133 3132 3131 3130 3129 3129 3128 3128 3128 3127 3127 3127 3127 3128 3129 3130 3131 3132 3133 3135 3136 3137 3139 3142 3144 3146 3147 3149 3151 3152 3154 3156 3157 3159 3160 3160